Time,TemperatureF,DewpointF,PressureIn,WindDirection,WindDirectionDegrees,WindSpeedMPH,WindSpeedGustMPH,Humidity,HourlyPrecipIn,Conditions,Clouds,dailyrainin,SoftwareType,DateUTC
2013-05-15 00:00:00,62.2,41.2,30.05,South,179,0.0,3.0,46,0.00,,---,0.00,VWS V14.01,2013-05-15 04:00:00,
2013-05-15 00:01:00,62.2,40.6,30.05,SSE,150,1.0,1.0,45,0.00,,---,0.00,VWS V14.01,2013-05-15 04:01:00,
2013-05-15 00:02:00,62.1,40.5,30.05,SSW,208,5.0,5.0,45,0.00,,---,0.00,VWS V14.01,2013-05-15 04:02:00,
2013-05-15 00:07:00,62.1,40.5,30.05,SW,218,1.0,5.0,45,0.00,,---,0.00,VWS V14.01,2013-05-15 04:07:00,
2013-05-15 00:12:00,62.0,41.0,30.04,South,176,0.0,1.0,46,0.00,,---,0.00,VWS V14.01,2013-05-15 04:12:00,
2013-05-15 00:17:00,61.8,40.8,30.03,SW,224,1.0,4.0,46,0.00,,---,0.00,VWS V14.01,2013-05-15 04:17:00,
2013-05-15 00:22:00,61.7,41.3,30.03,SE,129,0.0,3.0,47,0.00,,---,0.00,VWS V14.01,2013-05-15 04:22:00,
2013-05-15 00:27:00,61.6,40.6,30.03,SSW,195,0.0,4.0,46,0.00,,---,0.00,VWS V14.01,2013-05-15 04:27:00,
2013-05-15 00:33:00,61.5,41.1,30.02,West,280,2.0,8.0,47,0.00,,---,0.00,VWS V14.01,2013-05-15 04:33:00,
2013-05-15 00:38:00,61.4,41.0,30.02,SSW,211,0.0,6.0,47,0.00,,---,0.00,VWS V14.01,2013-05-15 04:38:00,
2013-05-15 00:43:00,61.4,41.0,30.02,SSE,151,2.0,6.0,47,0.00,,---,0.00,VWS V14.01,2013-05-15 04:43:00,
2013-05-15 00:48:00,61.4,41.0,30.02,SW,214,1.0,5.0,47,0.00,,---,0.00,VWS V14.01,2013-05-15 04:48:00,
2013-05-15 00:53:00,61.4,41.0,30.02,SE,124,4.0,4.0,47,0.00,,---,0.00,VWS V14.01,2013-05-15 04:53:00,
2013-05-15 00:58:00,61.4,41.0,30.02,SW,231,0.0,4.0,47,0.00,,---,0.00,VWS V14.01,2013-05-15 04:58:00,
2013-05-15 01:03:00,61.4,41.6,30.02,SSW,211,0.0,5.0,48,0.00,,---,0.00,VWS V14.01,2013-05-15 05:03:00,
2013-05-15 01:08:00,61.4,41.0,30.02,SW,227,1.0,6.0,47,0.00,,---,0.00,VWS V14.01,2013-05-15 05:08:00,
2013-05-15 01:13:00,61.4,41.0,30.02,West,278,3.0,3.0,47,0.00,,---,0.00,VWS V14.01,2013-05-15 05:13:00,
2013-05-15 01:18:00,61.4,41.0,30.02,SSW,212,2.0,7.0,47,0.00,,---,0.00,VWS V14.01,2013-05-15 05:18:00,
2013-05-15 01:24:00,61.5,41.1,30.01,SW,222,4.0,5.0,47,0.00,,---,0.00,VWS V14.01,2013-05-15 05:24:00,
2013-05-15 01:29:00,61.4,41.6,30.01,SSW,205,2.0,4.0,48,0.00,,---,0.00,VWS V14.01,2013-05-15 05:29:00,
2013-05-15 01:34:00,61.4,41.0,30.01,ESE,113,1.0,3.0,47,0.00,,---,0.00,VWS V14.01,2013-05-15 05:34:00,
2013-05-15 01:39:00,61.4,41.0,30.01,SSE,163,0.0,4.0,47,0.00,,---,0.00,VWS V14.01,2013-05-15 05:39:00,
2013-05-15 01:44:00,61.4,41.0,30.00,SE,128,1.0,10.0,47,0.00,,---,0.00,VWS V14.01,2013-05-15 05:44:00,
2013-05-15 01:49:00,61.3,40.9,30.00,South,174,2.0,4.0,47,0.00,,---,0.00,VWS V14.01,2013-05-15 05:49:00,
2013-05-15 01:54:00,61.3,40.9,30.00,WNW,291,0.0,5.0,47,0.00,,---,0.00,VWS V14.01,2013-05-15 05:54:00,
2013-05-15 01:59:00,61.3,40.9,30.00,SW,224,1.0,6.0,47,0.00,,---,0.00,VWS V14.01,2013-05-15 05:59:00,
2013-05-15 02:04:00,61.3,40.9,30.00,South,187,1.0,7.0,47,0.00,,---,0.00,VWS V14.01,2013-05-15 06:04:00,
2013-05-15 02:09:00,61.3,40.9,29.99,SSE,159,2.0,9.0,47,0.00,,---,0.00,VWS V14.01,2013-05-15 06:09:00,
2013-05-15 02:15:00,61.3,40.9,29.99,South,189,0.0,6.0,47,0.00,,---,0.00,VWS V14.01,2013-05-15 06:15:00,
2013-05-15 02:20:00,61.3,41.5,29.99,SSW,197,3.0,9.0,48,0.00,,---,0.00,VWS V14.01,2013-05-15 06:20:00,
2013-05-15 02:25:00,61.2,41.4,29.99,South,184,2.0,6.0,48,0.00,,---,0.00,VWS V14.01,2013-05-15 06:25:00,
2013-05-15 02:30:00,61.1,41.3,29.98,South,169,0.0,4.0,48,0.00,,---,0.00,VWS V14.01,2013-05-15 06:30:00,
2013-05-15 02:35:00,61.1,41.8,29.98,West,281,1.0,6.0,49,0.00,,---,0.00,VWS V14.01,2013-05-15 06:35:00,
2013-05-15 02:40:00,61.1,41.8,29.98,SW,221,2.0,5.0,49,0.00,,---,0.00,VWS V14.01,2013-05-15 06:40:00,
2013-05-15 02:45:00,61.0,41.7,29.98,SE,146,2.0,3.0,49,0.00,,---,0.00,VWS V14.01,2013-05-15 06:45:00,
2013-05-15 02:50:00,61.1,41.8,29.97,East,94,2.0,4.0,49,0.00,,---,0.00,VWS V14.01,2013-05-15 06:50:00,
2013-05-15 02:55:00,61.1,41.8,29.97,SW,214,3.0,3.0,49,0.00,,---,0.00,VWS V14.01,2013-05-15 06:55:00,
2013-05-15 03:00:00,61.0,41.7,29.97,SSE,155,2.0,6.0,49,0.00,,---,0.00,VWS V14.01,2013-05-15 07:00:00,
2013-05-15 03:05:00,60.9,42.2,29.97,SE,135,2.0,2.0,50,0.00,,---,0.00,VWS V14.01,2013-05-15 07:05:00,
2013-05-15 03:10:00,60.7,42.0,29.97,SSE,160,3.0,4.0,50,0.00,,---,0.00,VWS V14.01,2013-05-15 07:10:00,
2013-05-15 03:15:00,60.5,42.3,29.97,SW,215,0.0,2.0,51,0.00,,---,0.00,VWS V14.01,2013-05-15 07:15:00,
2013-05-15 03:20:00,60.3,42.1,29.97,SE,136,3.0,3.0,51,0.00,,---,0.00,VWS V14.01,2013-05-15 07:20:00,
2013-05-15 03:26:00,60.1,42.4,29.96,SW,217,1.0,2.0,52,0.00,,---,0.00,VWS V14.01,2013-05-15 07:26:00,
2013-05-15 03:31:00,59.9,42.2,29.96,East,98,2.0,4.0,52,0.00,,---,0.00,VWS V14.01,2013-05-15 07:31:00,
2013-05-15 03:36:00,59.7,42.6,29.97,SW,221,2.0,2.0,53,0.00,,---,0.00,VWS V14.01,2013-05-15 07:36:00,
2013-05-15 03:41:00,59.6,42.5,29.96,SE,138,0.0,4.0,53,0.00,,---,0.00,VWS V14.01,2013-05-15 07:41:00,
2013-05-15 03:46:00,59.5,42.4,29.97,South,181,0.0,4.0,53,0.00,,---,0.00,VWS V14.01,2013-05-15 07:46:00,
2013-05-15 03:51:00,59.2,42.6,29.97,NE,37,1.0,3.0,54,0.00,,---,0.00,VWS V14.01,2013-05-15 07:51:00,
2013-05-15 03:56:00,59.1,42.5,29.96,SSW,211,0.0,2.0,54,0.00,,---,0.00,VWS V14.01,2013-05-15 07:56:00,
2013-05-15 04:01:00,59.1,43.0,29.96,SW,235,0.0,0.0,55,0.00,,---,0.00,VWS V14.01,2013-05-15 08:01:00,
2013-05-15 04:06:00,58.9,42.8,29.96,SSE,155,0.0,4.0,55,0.00,,---,0.00,VWS V14.01,2013-05-15 08:06:00,
2013-05-15 04:11:00,58.8,42.7,29.96,ESE,120,0.0,2.0,55,0.00,,---,0.00,VWS V14.01,2013-05-15 08:11:00,
2013-05-15 04:16:00,58.7,43.1,29.97,SW,228,2.0,2.0,56,0.00,,---,0.00,VWS V14.01,2013-05-15 08:16:00,
2013-05-15 04:21:00,58.7,43.1,29.96,SW,226,0.0,3.0,56,0.00,,---,0.00,VWS V14.01,2013-05-15 08:21:00,
2013-05-15 04:27:00,58.6,43.0,29.96,SSW,198,1.0,1.0,56,0.00,,---,0.00,VWS V14.01,2013-05-15 08:27:00,
2013-05-15 04:32:00,58.5,43.3,29.96,ESE,110,0.0,1.0,57,0.00,,---,0.00,VWS V14.01,2013-05-15 08:32:00,
2013-05-15 04:37:00,58.5,43.3,29.96,NW,304,1.0,4.0,57,0.00,,---,0.00,VWS V14.01,2013-05-15 08:37:00,
2013-05-15 04:42:00,58.4,43.2,29.96,WSW,239,1.0,4.0,57,0.00,,---,0.00,VWS V14.01,2013-05-15 08:42:00,
2013-05-15 04:47:00,58.4,43.7,29.96,SSW,195,0.0,2.0,58,0.00,,---,0.00,VWS V14.01,2013-05-15 08:47:00,
2013-05-15 04:52:00,58.2,43.5,29.96,SSW,211,0.0,1.0,58,0.00,,---,0.00,VWS V14.01,2013-05-15 08:52:00,
2013-05-15 04:57:00,58.0,43.3,29.96,SW,232,0.0,2.0,58,0.00,,---,0.00,VWS V14.01,2013-05-15 08:57:00,
2013-05-15 05:02:00,57.8,43.6,29.96,SE,146,0.0,1.0,59,0.00,,---,0.00,VWS V14.01,2013-05-15 09:02:00,
2013-05-15 05:07:00,57.5,43.3,29.97,SE,132,0.0,1.0,59,0.00,,---,0.00,VWS V14.01,2013-05-15 09:07:00,
2013-05-15 05:12:00,57.2,43.5,29.96,SSE,159,1.0,2.0,60,0.00,,---,0.00,VWS V14.01,2013-05-15 09:12:00,
2013-05-15 05:18:00,57.2,43.5,29.96,SSE,159,2.0,2.0,60,0.00,,---,0.00,VWS V14.01,2013-05-15 09:18:00,
2013-05-15 05:23:00,57.2,43.5,29.96,SW,226,1.0,3.0,60,0.00,,---,0.00,VWS V14.01,2013-05-15 09:23:00,
2013-05-15 05:28:00,57.1,43.8,29.96,South,179,2.0,4.0,61,0.00,,---,0.00,VWS V14.01,2013-05-15 09:28:00,
2013-05-15 05:33:00,57.0,43.7,29.96,SW,233,0.0,1.0,61,0.00,,---,0.00,VWS V14.01,2013-05-15 09:33:00,
2013-05-15 05:38:00,56.9,43.6,29.96,SSE,153,1.0,2.0,61,0.00,,---,0.00,VWS V14.01,2013-05-15 09:38:00,
2013-05-15 05:43:00,56.8,43.9,29.97,SW,217,0.0,3.0,62,0.00,,---,0.00,VWS V14.01,2013-05-15 09:43:00,
2013-05-15 05:48:00,56.7,43.8,29.97,SW,230,0.0,1.0,62,0.00,,---,0.00,VWS V14.01,2013-05-15 09:48:00,
2013-05-15 05:53:00,56.6,43.8,29.97,SSW,207,0.0,1.0,62,0.00,,---,0.00,VWS V14.01,2013-05-15 09:53:00,
2013-05-15 05:58:00,56.4,44.0,29.97,SW,216,1.0,2.0,63,0.00,,---,0.00,VWS V14.01,2013-05-15 09:58:00,
2013-05-15 06:04:00,56.4,44.0,29.97,West,278,1.0,3.0,63,0.00,,---,0.00,VWS V14.01,2013-05-15 10:04:00,
2013-05-15 06:09:00,56.4,44.0,29.97,SSW,210,1.0,2.0,63,0.00,,---,0.00,VWS V14.01,2013-05-15 10:09:00,
2013-05-15 06:14:00,56.3,44.3,29.96,East,83,0.0,2.0,64,0.00,,---,0.00,VWS V14.01,2013-05-15 10:14:00,
2013-05-15 06:19:00,56.2,44.2,29.96,West,266,2.0,2.0,64,0.00,,---,0.00,VWS V14.01,2013-05-15 10:19:00,
2013-05-15 06:24:00,56.3,44.3,29.97,WSW,239,0.0,3.0,64,0.00,,---,0.00,VWS V14.01,2013-05-15 10:24:00,
2013-05-15 06:29:00,56.4,44.4,29.96,SSW,208,0.0,1.0,64,0.00,,---,0.00,VWS V14.01,2013-05-15 10:29:00,
2013-05-15 06:34:00,56.4,44.8,29.97,WNW,286,0.0,1.0,65,0.00,,---,0.00,VWS V14.01,2013-05-15 10:34:00,
2013-05-15 06:39:00,56.5,44.9,29.97,WNW,293,1.0,2.0,65,0.00,,---,0.00,VWS V14.01,2013-05-15 10:39:00,
2013-05-15 06:44:00,56.7,45.1,29.97,West,269,0.0,2.0,65,0.00,,---,0.00,VWS V14.01,2013-05-15 10:44:00,
2013-05-15 06:49:00,57.0,45.4,29.96,South,177,1.0,4.0,65,0.00,,---,0.00,VWS V14.01,2013-05-15 10:49:00,
2013-05-15 06:54:00,57.5,45.4,29.96,West,274,0.0,3.0,64,0.00,,---,0.00,VWS V14.01,2013-05-15 10:54:00,
2013-05-15 07:00:00,57.7,45.6,29.96,SSW,210,0.0,2.0,64,0.00,,---,0.00,VWS V14.01,2013-05-15 11:00:00,
2013-05-15 07:05:00,57.9,46.2,29.96,SW,231,0.0,1.0,65,0.00,,---,0.00,VWS V14.01,2013-05-15 11:05:00,
2013-05-15 07:11:00,58.2,46.1,29.96,ENE,70,1.0,1.0,64,0.00,,---,0.00,VWS V14.01,2013-05-15 11:11:00,
2013-05-15 07:16:00,58.5,46.4,29.97,SSW,210,3.0,4.0,64,0.00,,---,0.00,VWS V14.01,2013-05-15 11:16:00,
2013-05-15 07:21:00,58.8,46.2,29.97,South,184,3.0,3.0,63,0.00,,---,0.00,VWS V14.01,2013-05-15 11:21:00,
2013-05-15 07:26:00,59.1,46.1,29.97,SSW,201,3.0,5.0,62,0.00,,---,0.00,VWS V14.01,2013-05-15 11:26:00,
2013-05-15 07:31:00,59.3,46.7,29.97,West,275,2.0,4.0,63,0.00,,---,0.00,VWS V14.01,2013-05-15 11:31:00,
2013-05-15 07:36:00,59.6,46.6,29.96,SW,235,1.0,5.0,62,0.00,,---,0.00,VWS V14.01,2013-05-15 11:36:00,
2013-05-15 07:42:00,60.0,47.0,29.96,South,190,1.0,8.0,62,0.00,,---,0.00,VWS V14.01,2013-05-15 11:42:00,
2013-05-15 07:47:00,60.6,47.1,29.96,SW,233,4.0,4.0,61,0.00,,---,0.00,VWS V14.01,2013-05-15 11:47:00,
2013-05-15 07:52:00,60.9,47.4,29.96,SW,236,1.0,5.0,61,0.00,,---,0.00,VWS V14.01,2013-05-15 11:52:00,
2013-05-15 07:57:00,61.2,47.7,29.96,SE,142,1.0,6.0,61,0.00,,---,0.00,VWS V14.01,2013-05-15 11:57:00,
2013-05-15 08:02:00,61.6,47.6,29.96,South,179,1.0,8.0,60,0.00,,---,0.00,VWS V14.01,2013-05-15 12:02:00,
2013-05-15 08:07:00,62.0,48.0,29.95,WSW,243,2.0,7.0,60,0.00,,---,0.00,VWS V14.01,2013-05-15 12:07:00,
2013-05-15 08:12:00,62.4,48.3,29.95,West,269,3.0,8.0,60,0.00,,---,0.00,VWS V14.01,2013-05-15 12:12:00,
2013-05-15 08:18:00,62.5,48.0,29.95,West,266,6.0,9.0,59,0.00,,---,0.00,VWS V14.01,2013-05-15 12:18:00,
2013-05-15 08:23:00,62.5,48.4,29.96,South,191,2.0,6.0,60,0.00,,---,0.00,VWS V14.01,2013-05-15 12:23:00,
2013-05-15 08:29:00,62.7,48.2,29.96,South,187,2.0,5.0,59,0.00,,---,0.00,VWS V14.01,2013-05-15 12:29:00,
2013-05-15 08:34:00,63.1,49.0,29.96,West,281,3.0,8.0,60,0.00,,---,0.00,VWS V14.01,2013-05-15 12:34:00,
2013-05-15 08:39:00,63.5,49.4,29.95,SW,214,3.0,5.0,60,0.00,,---,0.00,VWS V14.01,2013-05-15 12:39:00,
2013-05-15 08:44:00,63.9,49.8,29.95,SSW,203,2.0,5.0,60,0.00,,---,0.00,VWS V14.01,2013-05-15 12:44:00,
2013-05-15 08:49:00,63.9,49.8,29.94,SW,225,5.0,6.0,60,0.00,,---,0.00,VWS V14.01,2013-05-15 12:49:00,
2013-05-15 08:54:00,64.0,50.7,29.94,ESE,120,1.0,6.0,62,0.00,,---,0.00,VWS V14.01,2013-05-15 12:54:00,
2013-05-15 09:00:00,64.1,50.0,29.96,SW,215,4.0,7.0,60,0.00,,---,0.00,VWS V14.01,2013-05-15 13:00:00,
2013-05-15 09:05:00,64.3,51.0,29.95,SW,224,0.0,8.0,62,0.00,,---,0.00,VWS V14.01,2013-05-15 13:05:00,
2013-05-15 09:10:00,64.6,50.9,29.95,West,273,2.0,7.0,61,0.00,,---,0.00,VWS V14.01,2013-05-15 13:10:00,
2013-05-15 09:15:00,64.7,51.0,29.95,SW,232,4.0,9.0,61,0.00,,---,0.00,VWS V14.01,2013-05-15 13:15:00,
2013-05-15 09:20:00,65.0,51.2,29.95,WNW,287,3.0,8.0,61,0.00,,---,0.00,VWS V14.01,2013-05-15 13:20:00,
2013-05-15 09:25:00,65.3,51.1,29.95,West,260,3.0,3.0,60,0.00,,---,0.00,VWS V14.01,2013-05-15 13:25:00,
2013-05-15 09:30:00,65.5,52.2,29.95,SSW,198,1.0,4.0,62,0.00,,---,0.00,VWS V14.01,2013-05-15 13:30:00,
2013-05-15 09:35:00,65.3,52.0,29.95,SW,222,5.0,5.0,62,0.00,,---,0.00,VWS V14.01,2013-05-15 13:35:00,
2013-05-15 09:40:00,65.1,52.2,29.94,WSW,255,3.0,5.0,63,0.00,,---,0.00,VWS V14.01,2013-05-15 13:40:00,
2013-05-15 09:45:00,65.3,52.8,29.94,SW,226,2.0,2.0,64,0.00,,---,0.00,VWS V14.01,2013-05-15 13:45:00,
2013-05-15 09:50:00,66.0,53.1,29.94,NW,307,2.0,9.0,63,0.00,,---,0.00,VWS V14.01,2013-05-15 13:50:00,
2013-05-15 09:56:00,66.7,53.3,29.94,SW,228,3.0,4.0,62,0.00,,---,0.00,VWS V14.01,2013-05-15 13:56:00,
2013-05-15 10:01:00,67.4,53.0,29.94,WNW,285,1.0,6.0,60,0.00,,---,0.00,VWS V14.01,2013-05-15 14:01:00,
2013-05-15 10:06:00,67.9,53.1,29.94,West,262,2.0,7.0,59,0.00,,---,0.00,VWS V14.01,2013-05-15 14:06:00,
2013-05-15 10:11:00,68.2,53.8,29.94,SSW,212,3.0,5.0,60,0.00,,---,0.00,VWS V14.01,2013-05-15 14:11:00,
2013-05-15 10:16:00,68.2,53.8,29.94,WNW,293,5.0,6.0,60,0.00,,---,0.00,VWS V14.01,2013-05-15 14:16:00,
2013-05-15 10:22:00,68.8,54.4,29.94,West,266,6.0,8.0,60,0.00,,---,0.00,VWS V14.01,2013-05-15 14:22:00,
2013-05-15 10:27:00,69.2,54.7,29.94,NW,312,4.0,8.0,60,0.00,,---,0.00,VWS V14.01,2013-05-15 14:27:00,
2013-05-15 10:32:00,69.6,54.7,29.94,NW,320,2.0,6.0,59,0.00,,---,0.00,VWS V14.01,2013-05-15 14:32:00,
2013-05-15 10:38:00,69.8,55.3,29.94,WSW,246,1.0,4.0,60,0.00,,---,0.00,VWS V14.01,2013-05-15 14:38:00,
2013-05-15 10:43:00,70.7,55.2,29.94,SW,231,2.0,7.0,58,0.00,,---,0.00,VWS V14.01,2013-05-15 14:43:00,
2013-05-15 10:49:00,71.1,55.6,29.94,WNW,282,2.0,10.0,58,0.00,,---,0.00,VWS V14.01,2013-05-15 14:49:00,
2013-05-15 10:54:00,71.6,57.0,29.93,SW,224,3.0,7.0,60,0.00,,---,0.00,VWS V14.01,2013-05-15 14:54:00,
2013-05-15 10:59:00,71.7,56.2,29.93,SSE,160,2.0,6.0,58,0.00,,---,0.00,VWS V14.01,2013-05-15 14:59:00,
2013-05-15 11:04:00,72.2,57.1,29.92,ESE,113,1.0,6.0,59,0.00,,---,0.00,VWS V14.01,2013-05-15 15:04:00,
2013-05-15 11:09:00,73.1,57.9,29.92,SSE,149,2.0,4.0,59,0.00,,---,0.00,VWS V14.01,2013-05-15 15:09:00,
2013-05-15 11:15:00,73.7,57.5,29.92,SE,136,1.0,1.0,57,0.00,,---,0.00,VWS V14.01,2013-05-15 15:15:00,
2013-05-15 11:20:00,74.4,57.7,29.92,WSW,245,1.0,3.0,56,0.00,,---,0.00,VWS V14.01,2013-05-15 15:20:00,
2013-05-15 11:25:00,75.2,58.9,29.92,West,278,3.0,4.0,57,0.00,,---,0.00,VWS V14.01,2013-05-15 15:25:00,
2013-05-15 11:30:00,76.1,59.3,29.91,ESE,108,2.0,2.0,56,0.00,,---,0.00,VWS V14.01,2013-05-15 15:30:00,
2013-05-15 11:35:00,76.9,59.0,29.92,SSW,212,4.0,4.0,54,0.00,,---,0.00,VWS V14.01,2013-05-15 15:35:00,
2013-05-15 11:40:00,77.4,59.5,29.91,WSW,252,2.0,5.0,54,0.00,,---,0.00,VWS V14.01,2013-05-15 15:40:00,
2013-05-15 11:45:00,77.8,58.8,29.91,SE,135,3.0,4.0,52,0.00,,---,0.00,VWS V14.01,2013-05-15 15:45:00,
2013-05-15 11:50:00,77.7,59.2,29.91,SSW,211,2.0,6.0,53,0.00,,---,0.00,VWS V14.01,2013-05-15 15:50:00,
2013-05-15 11:57:00,77.7,58.7,29.91,WSW,245,3.0,9.0,52,0.00,,---,0.00,VWS V14.01,2013-05-15 15:57:00,
2013-05-15 12:02:00,78.0,60.0,29.91,SW,218,8.0,8.0,54,0.00,,---,0.00,VWS V14.01,2013-05-15 16:02:00,
2013-05-15 12:07:00,78.0,59.5,29.91,NNW,333,2.0,11.0,53,0.00,,---,0.00,VWS V14.01,2013-05-15 16:07:00,
2013-05-15 12:12:00,78.3,60.8,29.90,WNW,283,7.0,7.0,55,0.00,,---,0.00,VWS V14.01,2013-05-15 16:12:00,
2013-05-15 12:18:00,78.7,60.2,29.90,East,89,2.0,7.0,53,0.00,,---,0.00,VWS V14.01,2013-05-15 16:18:00,
2013-05-15 12:23:00,79.7,60.5,29.90,WNW,297,3.0,11.0,52,0.00,,---,0.00,VWS V14.01,2013-05-15 16:23:00,
2013-05-15 12:29:00,80.1,60.9,29.90,SSE,160,5.0,6.0,52,0.00,,---,0.00,VWS V14.01,2013-05-15 16:29:00,
2013-05-15 12:34:00,80.6,62.4,29.89,South,173,1.0,8.0,54,0.00,,---,0.00,VWS V14.01,2013-05-15 16:34:00,
2013-05-15 12:39:00,80.7,60.9,29.89,WSW,242,2.0,8.0,51,0.00,,---,0.00,VWS V14.01,2013-05-15 16:39:00,
2013-05-15 12:44:00,81.0,61.2,29.89,SSW,195,2.0,9.0,51,0.00,,---,0.00,VWS V14.01,2013-05-15 16:44:00,
2013-05-15 12:49:00,81.0,61.2,29.89,West,271,3.0,12.0,51,0.00,,---,0.00,VWS V14.01,2013-05-15 16:49:00,
2013-05-15 12:55:00,81.3,62.0,29.89,NNW,345,1.0,11.0,52,0.00,,---,0.00,VWS V14.01,2013-05-15 16:55:00,
2013-05-15 13:00:00,81.7,62.4,29.89,SSW,205,6.0,7.0,52,0.00,,---,0.00,VWS V14.01,2013-05-15 17:00:00,
2013-05-15 13:05:00,81.9,62.0,29.89,SW,225,4.0,7.0,51,0.00,,---,0.00,VWS V14.01,2013-05-15 17:05:00,
2013-05-15 13:10:00,82.3,61.8,29.88,SE,139,1.0,7.0,50,0.00,,---,0.00,VWS V14.01,2013-05-15 17:10:00,
2013-05-15 13:16:00,82.8,62.8,29.88,NW,314,5.0,9.0,51,0.00,,---,0.00,VWS V14.01,2013-05-15 17:16:00,
2013-05-15 13:21:00,82.6,62.1,29.88,West,266,7.0,7.0,50,0.00,,---,0.00,VWS V14.01,2013-05-15 17:21:00,
2013-05-15 13:26:00,82.3,61.8,29.88,West,274,6.0,9.0,50,0.00,,---,0.00,VWS V14.01,2013-05-15 17:26:00,
2013-05-15 13:31:00,82.2,61.7,29.88,WSW,243,4.0,8.0,50,0.00,,---,0.00,VWS V14.01,2013-05-15 17:31:00,
2013-05-15 13:36:00,82.7,62.8,29.87,SSE,152,3.0,9.0,51,0.00,,---,0.00,VWS V14.01,2013-05-15 17:36:00,
2013-05-15 13:41:00,83.2,62.1,29.87,East,98,1.0,8.0,49,0.00,,---,0.00,VWS V14.01,2013-05-15 17:41:00,
2013-05-15 13:46:00,83.5,61.8,29.87,WSW,239,4.0,9.0,48,0.00,,---,0.00,VWS V14.01,2013-05-15 17:46:00,
2013-05-15 13:52:00,84.2,63.0,29.86,WSW,240,4.0,10.0,49,0.00,,---,0.00,VWS V14.01,2013-05-15 17:52:00,
2013-05-15 13:57:00,84.7,62.3,29.86,SW,217,1.0,8.0,47,0.00,,---,0.00,VWS V14.01,2013-05-15 17:57:00,
2013-05-15 14:03:00,84.9,63.0,29.85,SE,143,1.0,8.0,48,0.00,,---,0.00,VWS V14.01,2013-05-15 18:03:00,
2013-05-15 14:08:00,84.7,61.7,29.85,West,273,5.0,12.0,46,0.00,,---,0.00,VWS V14.01,2013-05-15 18:08:00,
2013-05-15 14:13:00,84.7,62.3,29.84,West,264,4.0,10.0,47,0.00,,---,0.00,VWS V14.01,2013-05-15 18:13:00,
2013-05-15 14:18:00,84.9,63.0,29.84,WNW,297,7.0,10.0,48,0.00,,---,0.00,VWS V14.01,2013-05-15 18:18:00,
2013-05-15 14:23:00,84.6,62.8,29.84,SSW,199,6.0,15.0,48,0.00,,---,0.00,VWS V14.01,2013-05-15 18:23:00,
2013-05-15 14:28:00,84.9,63.0,29.84,SW,224,4.0,13.0,48,0.00,,---,0.00,VWS V14.01,2013-05-15 18:28:00,
2013-05-15 14:34:00,85.0,63.1,29.83,West,267,6.0,12.0,48,0.00,,---,0.00,VWS V14.01,2013-05-15 18:34:00,
2013-05-15 14:39:00,85.2,63.3,29.83,South,184,6.0,10.0,48,0.00,,---,0.00,VWS V14.01,2013-05-15 18:39:00,
2013-05-15 14:44:00,85.3,62.2,29.83,NNW,342,2.0,11.0,46,0.00,,---,0.00,VWS V14.01,2013-05-15 18:44:00,
2013-05-15 14:49:00,86.0,64.0,29.83,SE,135,3.0,5.0,48,0.00,,---,0.00,VWS V14.01,2013-05-15 18:49:00,
2013-05-15 14:54:00,85.9,61.5,29.83,SSE,160,8.0,15.0,44,0.00,,---,0.00,VWS V14.01,2013-05-15 18:54:00,
2013-05-15 14:59:00,86.4,63.2,29.83,SSW,208,6.0,11.0,46,0.00,,---,0.00,VWS V14.01,2013-05-15 18:59:00,
2013-05-15 15:05:00,86.2,61.1,29.82,SSW,208,8.0,12.0,43,0.00,,---,0.00,VWS V14.01,2013-05-15 19:05:00,
2013-05-15 15:10:00,86.1,63.5,29.82,West,281,2.0,11.0,47,0.00,,---,0.00,VWS V14.01,2013-05-15 19:10:00,
2013-05-15 15:15:00,87.0,61.8,29.82,South,191,0.0,7.0,43,0.00,,---,0.00,VWS V14.01,2013-05-15 19:15:00,
2013-05-15 15:20:00,86.8,61.6,29.82,WSW,249,9.0,12.0,43,0.00,,---,0.00,VWS V14.01,2013-05-15 19:20:00,
2013-05-15 15:25:00,86.9,61.7,29.81,SW,221,4.0,6.0,43,0.00,,---,0.00,VWS V14.01,2013-05-15 19:25:00,
2013-05-15 15:30:00,87.2,62.0,29.81,SSE,160,5.0,8.0,43,0.00,,---,0.00,VWS V14.01,2013-05-15 19:30:00,
2013-05-15 15:35:00,87.6,63.7,29.81,ESE,117,3.0,8.0,45,0.00,,---,0.00,VWS V14.01,2013-05-15 19:35:00,
2013-05-15 15:40:00,87.1,61.9,29.80,SE,142,1.0,6.0,43,0.00,,---,0.00,VWS V14.01,2013-05-15 19:40:00,
2013-05-15 15:45:00,87.0,62.5,29.80,SW,218,4.0,4.0,44,0.00,,---,0.00,VWS V14.01,2013-05-15 19:45:00,
2013-05-15 15:50:00,87.0,62.5,29.80,South,191,4.0,9.0,44,0.00,,---,0.00,VWS V14.01,2013-05-15 19:50:00,
2013-05-15 15:55:00,87.4,62.8,29.80,SW,228,2.0,5.0,44,0.00,,---,0.00,VWS V14.01,2013-05-15 19:55:00,
2013-05-15 16:00:00,87.1,62.6,29.79,WSW,252,4.0,8.0,44,0.00,,---,0.00,VWS V14.01,2013-05-15 20:00:00,
2013-05-15 16:06:00,87.9,63.3,29.79,SSW,210,1.0,6.0,44,0.00,,---,0.00,VWS V14.01,2013-05-15 20:06:00,
2013-05-15 16:11:00,88.6,62.6,29.78,SSW,200,3.0,5.0,42,0.00,,---,0.00,VWS V14.01,2013-05-15 20:11:00,
2013-05-15 16:16:00,88.5,62.5,29.78,West,263,3.0,9.0,42,0.00,,---,0.00,VWS V14.01,2013-05-15 20:16:00,
2013-05-15 16:21:00,88.4,63.1,29.78,SW,225,5.0,10.0,43,0.00,,---,0.00,VWS V14.01,2013-05-15 20:21:00,
2013-05-15 16:27:00,88.3,62.3,29.78,SW,231,16.0,16.0,42,0.00,,---,0.00,VWS V14.01,2013-05-15 20:27:00,
2013-05-15 16:32:00,88.3,63.0,29.77,SSE,148,2.0,11.0,43,0.00,,---,0.00,VWS V14.01,2013-05-15 20:32:00,
2013-05-15 16:37:00,88.1,62.8,29.77,SSE,160,3.0,12.0,43,0.00,,---,0.00,VWS V14.01,2013-05-15 20:37:00,
2013-05-15 16:42:00,88.5,62.5,29.77,SSE,148,4.0,8.0,42,0.00,,---,0.00,VWS V14.01,2013-05-15 20:42:00,
2013-05-15 16:47:00,88.5,62.5,29.77,SW,229,2.0,7.0,42,0.00,,---,0.00,VWS V14.01,2013-05-15 20:47:00,
2013-05-15 16:53:00,88.5,61.8,29.77,SSE,162,5.0,12.0,41,0.00,,---,0.00,VWS V14.01,2013-05-15 20:53:00,
2013-05-15 16:57:00,88.2,62.2,29.76,SSE,162,3.0,11.0,42,0.00,,---,0.00,VWS V14.01,2013-05-15 20:57:00,
2013-05-15 17:03:00,88.5,63.2,29.77,West,274,9.0,12.0,43,0.00,,---,0.00,VWS V14.01,2013-05-15 21:03:00,
2013-05-15 17:08:00,88.6,62.6,29.77,SW,236,4.0,10.0,42,0.00,,---,0.00,VWS V14.01,2013-05-15 21:08:00,
2013-05-15 17:14:00,88.4,63.1,29.76,SW,231,2.0,11.0,43,0.00,,---,0.00,VWS V14.01,2013-05-15 21:14:00,
2013-05-15 17:19:00,88.8,63.4,29.76,West,259,4.0,12.0,43,0.00,,---,0.00,VWS V14.01,2013-05-15 21:19:00,
2013-05-15 17:24:00,88.3,63.0,29.76,SSW,197,5.0,10.0,43,0.00,,---,0.00,VWS V14.01,2013-05-15 21:24:00,
2013-05-15 17:29:00,88.2,63.6,29.76,SW,214,1.0,11.0,44,0.00,,---,0.00,VWS V14.01,2013-05-15 21:29:00,
2013-05-15 17:35:00,88.4,63.1,29.76,ESE,113,5.0,11.0,43,0.00,,---,0.00,VWS V14.01,2013-05-15 21:35:00,
2013-05-15 17:40:00,88.3,63.0,29.76,WNW,290,5.0,6.0,43,0.00,,---,0.00,VWS V14.01,2013-05-15 21:40:00,
2013-05-15 17:45:00,87.7,63.1,29.76,WNW,288,7.0,10.0,44,0.00,,---,0.00,VWS V14.01,2013-05-15 21:45:00,
2013-05-15 17:50:00,87.4,62.8,29.76,NNW,333,9.0,12.0,44,0.00,,---,0.00,VWS V14.01,2013-05-15 21:50:00,
2013-05-15 17:55:00,87.1,62.6,29.75,SSW,211,5.0,10.0,44,0.00,,---,0.00,VWS V14.01,2013-05-15 21:55:00,
2013-05-15 18:00:00,86.9,62.4,29.75,SW,221,8.0,9.0,44,0.00,,---,0.00,VWS V14.01,2013-05-15 22:00:00,
2013-05-15 18:06:00,86.6,62.8,29.75,WSW,250,5.0,8.0,45,0.00,,---,0.00,VWS V14.01,2013-05-15 22:06:00,
2013-05-15 18:11:00,86.8,62.9,29.75,SSW,211,4.0,6.0,45,0.00,,---,0.00,VWS V14.01,2013-05-15 22:11:00,
2013-05-15 18:16:00,86.9,63.0,29.75,WSW,238,3.0,13.0,45,0.00,,---,0.00,VWS V14.01,2013-05-15 22:16:00,
2013-05-15 18:21:00,86.7,63.5,29.75,SSW,193,1.0,10.0,46,0.00,,---,0.00,VWS V14.01,2013-05-15 22:21:00,
2013-05-15 18:26:00,86.8,62.9,29.75,WSW,245,10.0,12.0,45,0.00,,---,0.00,VWS V14.01,2013-05-15 22:26:00,
2013-05-15 18:32:00,86.7,63.5,29.74,SSW,211,2.0,7.0,46,0.00,,---,0.00,VWS V14.01,2013-05-15 22:32:00,
2013-05-15 18:37:00,86.6,63.4,29.74,WNW,297,2.0,10.0,46,0.00,,---,0.00,VWS V14.01,2013-05-15 22:37:00,
2013-05-15 18:42:00,86.3,63.1,29.74,South,169,2.0,12.0,46,0.00,,---,0.00,VWS V14.01,2013-05-15 22:42:00,
2013-05-15 18:47:00,86.2,63.0,29.74,SSW,207,3.0,8.0,46,0.00,,---,0.00,VWS V14.01,2013-05-15 22:47:00,
2013-05-15 18:52:00,86.4,63.8,29.74,WSW,256,3.0,9.0,47,0.00,,---,0.00,VWS V14.01,2013-05-15 22:52:00,
2013-05-15 18:57:00,86.3,63.7,29.74,West,263,3.0,11.0,47,0.00,,---,0.00,VWS V14.01,2013-05-15 22:57:00,
2013-05-15 19:03:00,86.0,63.4,29.74,South,187,2.0,9.0,47,0.00,,---,0.00,VWS V14.01,2013-05-15 23:03:00,
2013-05-15 19:08:00,85.7,63.2,29.74,WNW,297,4.0,14.0,47,0.00,,---,0.00,VWS V14.01,2013-05-15 23:08:00,
2013-05-15 19:13:00,85.4,63.5,29.74,South,186,1.0,8.0,48,0.00,,---,0.00,VWS V14.01,2013-05-15 23:13:00,
2013-05-15 19:19:00,84.9,63.0,29.74,South,187,3.0,13.0,48,0.00,,---,0.00,VWS V14.01,2013-05-15 23:19:00,
2013-05-15 19:24:00,84.5,63.8,29.74,SSW,213,4.0,14.0,50,0.00,,---,0.00,VWS V14.01,2013-05-15 23:24:00,
2013-05-15 19:29:00,84.2,63.6,29.74,WSW,242,1.0,9.0,50,0.00,,---,0.00,VWS V14.01,2013-05-15 23:29:00,
2013-05-15 19:34:00,83.9,63.3,29.74,SSE,162,3.0,9.0,50,0.00,,---,0.00,VWS V14.01,2013-05-15 23:34:00,
2013-05-15 19:39:00,83.7,63.7,29.74,SSW,211,3.0,8.0,51,0.00,,---,0.00,VWS V14.01,2013-05-15 23:39:00,
2013-05-15 19:44:00,83.4,64.0,29.75,SSW,207,3.0,6.0,52,0.00,,---,0.00,VWS V14.01,2013-05-15 23:44:00,
2013-05-15 19:50:00,83.1,63.7,29.75,SSE,166,0.0,8.0,52,0.00,,---,0.00,VWS V14.01,2013-05-15 23:50:00,
2013-05-15 19:55:00,83.0,63.6,29.75,WSW,245,4.0,4.0,52,0.00,,---,0.00,VWS V14.01,2013-05-15 23:55:00,
2013-05-15 20:00:00,82.8,63.9,29.75,ESE,121,1.0,1.0,53,0.00,,---,0.00,VWS V14.01,2013-05-16 00:00:00,
2013-05-15 20:05:00,82.7,63.8,29.75,SSW,213,4.0,4.0,53,0.00,,---,0.00,VWS V14.01,2013-05-16 00:05:00,
2013-05-15 20:11:00,82.6,63.8,29.75,SSE,166,1.0,4.0,53,0.00,,---,0.00,VWS V14.01,2013-05-16 00:11:00,
2013-05-15 20:16:00,82.4,63.6,29.75,SE,144,0.0,3.0,53,0.00,,---,0.00,VWS V14.01,2013-05-16 00:16:00,
2013-05-15 20:21:00,82.3,63.5,29.75,SW,231,1.0,3.0,53,0.00,,---,0.00,VWS V14.01,2013-05-16 00:21:00,
2013-05-15 20:26:00,82.2,63.4,29.75,SSW,197,2.0,3.0,53,0.00,,---,0.00,VWS V14.01,2013-05-16 00:26:00,
2013-05-15 20:31:00,82.1,63.3,29.75,WSW,245,2.0,5.0,53,0.00,,---,0.00,VWS V14.01,2013-05-16 00:31:00,
2013-05-15 20:36:00,82.0,63.2,29.75,SSW,212,4.0,9.0,53,0.00,,---,0.00,VWS V14.01,2013-05-16 00:36:00,
2013-05-15 20:42:00,82.1,63.3,29.75,SSW,210,2.0,7.0,53,0.00,,---,0.00,VWS V14.01,2013-05-16 00:42:00,
2013-05-15 20:47:00,82.0,63.2,29.75,WSW,257,2.0,8.0,53,0.00,,---,0.00,VWS V14.01,2013-05-16 00:47:00,
2013-05-15 20:52:00,81.9,63.1,29.75,SSW,210,4.0,9.0,53,0.00,,---,0.00,VWS V14.01,2013-05-16 00:52:00,
2013-05-15 20:57:00,81.8,63.5,29.75,ENE,78,2.0,7.0,54,0.00,,---,0.00,VWS V14.01,2013-05-16 00:57:00,
2013-05-15 21:02:00,81.7,63.5,29.75,SW,228,1.0,8.0,54,0.00,,---,0.00,VWS V14.01,2013-05-16 01:02:00,
2013-05-15 21:08:00,81.5,63.8,29.75,SSE,160,0.0,5.0,55,0.00,,---,0.00,VWS V14.01,2013-05-16 01:08:00,
2013-05-15 21:13:00,81.5,63.3,29.76,West,275,1.0,10.0,54,0.00,,---,0.00,VWS V14.01,2013-05-16 01:13:00,
2013-05-15 21:19:00,81.4,63.7,29.76,SW,217,5.0,15.0,55,0.00,,---,0.00,VWS V14.01,2013-05-16 01:19:00,
2013-05-15 21:24:00,81.4,63.7,29.76,SW,217,5.0,8.0,55,0.00,,---,0.00,VWS V14.01,2013-05-16 01:24:00,
2013-05-15 21:29:00,81.4,63.7,29.76,WSW,250,7.0,10.0,55,0.00,,---,0.00,VWS V14.01,2013-05-16 01:29:00,
2013-05-15 21:34:00,81.4,63.2,29.77,South,173,4.0,11.0,54,0.00,,---,0.00,VWS V14.01,2013-05-16 01:34:00,
2013-05-15 21:39:00,81.5,63.3,29.77,SW,226,7.0,10.0,54,0.00,,---,0.00,VWS V14.01,2013-05-16 01:39:00,
2013-05-15 21:45:00,81.3,63.6,29.77,SW,219,2.0,2.0,55,0.00,,---,0.00,VWS V14.01,2013-05-16 01:45:00,
2013-05-15 21:50:00,81.0,63.3,29.77,SSE,153,1.0,4.0,55,0.00,,---,0.00,VWS V14.01,2013-05-16 01:50:00,
2013-05-15 21:55:00,80.9,63.8,29.78,West,279,5.0,7.0,56,0.00,,---,0.00,VWS V14.01,2013-05-16 01:55:00,
2013-05-15 22:00:00,80.8,63.7,29.78,SE,129,0.0,1.0,56,0.00,,---,0.00,VWS V14.01,2013-05-16 02:00:00,
2013-05-15 22:06:00,80.5,63.4,29.78,NW,309,0.0,4.0,56,0.00,,---,0.00,VWS V14.01,2013-05-16 02:06:00,
2013-05-15 22:11:00,80.4,63.3,29.78,WSW,243,9.0,14.0,56,0.00,,---,0.00,VWS V14.01,2013-05-16 02:11:00,
2013-05-15 22:16:00,80.5,63.4,29.78,SW,236,3.0,7.0,56,0.00,,---,0.00,VWS V14.01,2013-05-16 02:16:00,
2013-05-15 22:21:00,80.6,63.5,29.78,West,261,6.0,10.0,56,0.00,,---,0.00,VWS V14.01,2013-05-16 02:21:00,
2013-05-15 22:26:00,80.4,63.3,29.78,SW,229,4.0,6.0,56,0.00,,---,0.00,VWS V14.01,2013-05-16 02:26:00,
2013-05-15 22:32:00,80.3,63.7,29.79,SE,127,1.0,8.0,57,0.00,,---,0.00,VWS V14.01,2013-05-16 02:32:00,
2013-05-15 22:37:00,80.1,63.5,29.78,SSW,207,2.0,7.0,57,0.00,,---,0.00,VWS V14.01,2013-05-16 02:37:00,
2013-05-15 22:42:00,79.9,63.3,29.78,SW,224,4.0,7.0,57,0.00,,---,0.00,VWS V14.01,2013-05-16 02:42:00,
2013-05-15 22:47:00,79.8,63.7,29.79,West,260,1.0,7.0,58,0.00,,---,0.00,VWS V14.01,2013-05-16 02:47:00,
2013-05-15 22:52:00,79.5,63.4,29.78,SSW,195,2.0,8.0,58,0.00,,---,0.00,VWS V14.01,2013-05-16 02:52:00,
2013-05-15 22:57:00,79.5,63.4,29.78,NW,311,4.0,11.0,58,0.00,,---,0.00,VWS V14.01,2013-05-16 02:57:00,
2013-05-15 23:02:00,79.3,63.7,29.78,West,259,3.0,7.0,59,0.00,,---,0.00,VWS V14.01,2013-05-16 03:02:00,
2013-05-15 23:08:00,79.1,63.6,29.78,WSW,256,1.0,10.0,59,0.00,,---,0.00,VWS V14.01,2013-05-16 03:08:00,
2013-05-15 23:13:00,79.0,63.5,29.79,SSW,200,3.0,7.0,59,0.00,,---,0.00,VWS V14.01,2013-05-16 03:13:00,
2013-05-15 23:18:00,78.9,63.4,29.79,SW,229,5.0,8.0,59,0.00,,---,0.00,VWS V14.01,2013-05-16 03:18:00,
2013-05-15 23:23:00,78.6,63.6,29.79,WNW,297,3.0,6.0,60,0.00,,---,0.00,VWS V14.01,2013-05-16 03:23:00,
2013-05-15 23:28:00,78.5,63.5,29.79,SW,219,3.0,6.0,60,0.00,,---,0.00,VWS V14.01,2013-05-16 03:28:00,
2013-05-15 23:33:00,78.5,63.5,29.79,WSW,249,2.0,4.0,60,0.00,,---,0.00,VWS V14.01,2013-05-16 03:33:00,
2013-05-15 23:39:00,78.3,63.3,29.79,SW,221,4.0,6.0,60,0.00,,---,0.00,VWS V14.01,2013-05-16 03:39:00,
2013-05-15 23:44:00,78.3,63.8,29.79,WSW,238,4.0,7.0,61,0.00,,---,0.00,VWS V14.01,2013-05-16 03:44:00,
2013-05-15 23:49:00,78.1,63.6,29.79,SE,138,1.0,6.0,61,0.00,,---,0.00,VWS V14.01,2013-05-16 03:49:00,
2013-05-15 23:54:00,78.0,63.5,29.79,SW,225,1.0,5.0,61,0.00,,---,0.00,VWS V14.01,2013-05-16 03:54:00,
2013-05-15 23:59:00,77.8,63.3,29.79,WNW,302,3.0,5.0,61,0.00,,---,0.00,VWS V14.01,2013-05-16 03:59:00,